Terminal Aerodrome Forecast
Issued by NWS

Home | Current Version | Previous Version | Text Only | Print | Product List | Glossary On
Versions: 1 2 3 4 5 6 7 8 9 10 11 12
000
FTUS45 KRIW 210500
TAFWRL
TAF
KWRL 210522Z 2106/2206 16006KT P6SM FEW150
     FM211700 18008KT P6SM SCT080 BKN130
     FM212000 21013G21KT P6SM SCT080 BKN130
     FM220300 35011KT P6SM SCT120=

USA.gov is the U.S. government's official web portal to all federal, state and local government web resources and services.